Flag for Switzerland Weather past 2 weeks in Yverdon-les-Bains, Vaud, Switzerland

Now
61 °F

Cool.


Feels Like: 61 °F
Forecast: 39 / 46 °F
Wind: 13 mph from Southwest

Location: Payerne

Current Time: Oct 21, 2014 at 6:09:51 PM

Latest Report: Oct 21, 2014 at 5:00 PM


Visibility: N/A

Pressure: 29.87 "Hg

Humidity: 70%

Dew point: 51 °F

Location of Yverdon-les-BainsLocation

Historic Weather in Yverdon-les-Bains — Graph

°F

Yverdon-les-Bains temperature yesterday

Maximum temperature yesterday: 70 °F (at 2:00 PM)
Minimum temperature yesterday: 49 °F (at 8:00 AM)
Average temperature yesterday: 59 °F

Past Weeks' High & Low Weather Summary

 TemperatureHumidityPressure
High72 °F (Oct 9, 3:00 PM)100% (Oct 8, 8:00 AM)30.29 "Hg (Oct 8, 8:00 AM)
Low46 °F (Oct 14, 8:00 AM)50% (Oct 9, 4:00 PM)29.77 "Hg (Oct 15, 5:00 PM)
Average58 °F88%29.95 "Hg
* Reported Oct 6 4:00 PM — Oct 21 4:00 PM, Yverdon-les-Bains, Weather by CustomWeather, © 2014

Note: Actual official high and low records may vary slightly from our data, if they occured in-between our weather recording intervals... More about our weather records

Advertising

Yverdon-les-Bains weather history for previous 24 hours

 ConditionsComfort  
Time TempWeatherWind HumidityBarometerVisibility
4:00 PM
Oct 21
64 °FMild.12 mph58%29.89 "HgN/A
3:00 PM65 °FMild.12 mph53%29.93 "HgN/A
2:00 PM64 °FPartly sunny.12 mph56%29.95 "Hg17 mi
1:00 PM63 °FMild.16 mph64%29.97 "HgN/A
12:00 PM65 °FMild.15 mph68%29.96 "HgN/A
11:00 AM65 °FScattered clouds.13 mph74%29.98 "Hg16 mi
10:00 AM62 °FMild.9 mph86%30.00 "HgN/A
9:00 AM59 °FCool.9 mph92%30.01 "HgN/A
8:00 AM57 °FPartly sunny.3 mph98%30.00 "Hg11 mi
7:00 AM58 °FCool.8 mph96%30.01 "HgN/A
6:00 AM58 °FCool.5 mph96%30.01 "HgN/A
5:00 AM58 °FCool.3 mph95%30.02 "HgN/A
4:00 AM58 °FCool.3 mph95%30.03 "HgN/A
3:00 AM59 °FCool.3 mph98%30.03 "HgN/A
2:00 AM58 °FOvercast.2 mph98%30.04 "Hg4 mi
1:00 AM59 °FCool.1 mph97%30.06 "HgN/A
12:00 AM60 °FCool.6 mph91%30.05 "HgN/A
11:00 PM
Oct 20
60 °FRain. Overcast.3 mph94%30.08 "Hg5 mi
10:00 PM60 °FCool.2 mph92%30.06 "HgN/A
9:00 PM61 °FCool.3 mph87%30.04 "HgN/A
8:00 PM61 °FFog.2 mph89%30.04 "Hg9 mi
7:00 PM62 °FCool.No wind89%30.05 "HgN/A
6:00 PM65 °FMild.2 mph83%30.03 "HgN/A
Weather by CustomWeather, © 2014

See weather overviewHow to use our weather pages